PBO Station Position Time Series. Reference Frame : NAM14
Format Version,1.1.1
4-character ID,P289
Station name,Peachtree_CN2007
Begin Date, 2007-01-26
End Date, 2023-06-26
Release Date, 2023-06-27
Reference position, 36.1068424916 North Latitude, -120.7488171528 East Longitude, 540.65639 meters elevation,
Date, North (mm), East (mm), Vertical (mm), North Std. Deviation (mm), East Std. Deviation (mm),              Vertical Std. Deviation (mm), Quality,
2007-01-26,0.00, 0.00, 0.00, 1.88, 1.62, 7.17, repro,
2007-01-27,-0.24, -0.65, 3.96, 1.87, 1.60, 7.05, repro,
2007-01-28,1.01, 0.81, -1.51, 1.89, 1.61, 7.11, repro,
2007-01-29,-2.01, -0.31, -2.74, 1.88, 1.61, 7.10, repro,
2007-01-30,-0.97, 0.56, -0.86, 1.87, 1.60, 7.03, repro,
2007-01-31,-1.08, 0.14, 6.09, 1.89, 1.61, 7.10, repro,
2007-02-01,-1.43, 1.56, 1.06, 1.90, 1.64, 7.22, repro,
2007-02-02,-1.12, 1.07, 2.07, 1.91, 1.63, 7.27, repro,
2007-02-03,-1.57, 0.76, -1.68, 1.92, 1.62, 7.27, repro,
2007-02-04,-1.13, 1.50, 0.69, 1.86, 1.60, 7.03, repro,
2007-02-05,0.38, 0.47, -0.73, 1.88, 1.62, 7.12, repro,
2007-02-06,-0.75, 1.45, -2.77, 1.93, 1.62, 7.18, repro,
2007-02-07,-0.38, 0.64, -2.87, 1.88, 1.60, 7.13, repro,
2007-02-08,-1.04, 0.57, -7.92, 1.96, 1.68, 7.46, repro,
2007-02-09,-0.92, 0.81, -0.85, 1.90, 1.67, 7.28, repro,
2007-02-10,0.86, 0.93, 2.67, 1.87, 1.61, 7.11, repro,
2007-02-11,-0.51, 0.30, 7.45, 1.89, 1.61, 7.14, repro,
2007-02-12,0.35, 1.24, -5.53, 1.86, 1.60, 7.02, repro,
2007-02-13,-0.96, 0.52, 2.36, 1.88, 1.62, 7.21, repro,
2007-02-14,-0.99, 0.78, -3.64, 1.89, 1.60, 7.07, repro,
2007-02-15,0.39, 1.61, -3.66, 1.88, 1.62, 7.14, repro,
2007-02-16,0.23, 1.49, 0.22, 1.89, 1.61, 7.14, repro,
2007-02-17,-0.69, 1.40, 3.69, 1.92, 1.66, 7.24, repro,
2007-02-18,-0.60, 1.23, 8.12, 1.88, 1.62, 7.16, repro,
2007-02-19,-1.68, -0.34, 8.33, 1.89, 1.61, 7.16, repro,
2007-02-20,-1.56, 1.14, 8.81, 1.89, 1.61, 7.15, repro,
2007-02-21,-0.41, 1.10, 5.93, 1.88, 1.61, 7.13, repro,
2007-02-22,0.11, -0.04, 1.69, 1.88, 1.62, 7.19, repro,
2007-02-23,-0.45, 0.94, 3.07, 2.06, 1.72, 7.55, repro,
2007-02-24,-0.42, 0.77, 5.96, 1.89, 1.62, 7.20, repro,
2007-02-25,-0.79, 1.53, 4.80, 1.89, 1.60, 7.10, repro,
2007-02-26,-1.62, 0.36, 2.33, 1.87, 1.60, 7.06, repro,
2007-02-27,-2.71, -0.46, 10.81, 1.88, 1.61, 7.12, repro,
2007-02-28,-0.49, 0.43, 7.02, 1.89, 1.60, 7.12, repro,
2007-03-01,-0.35, 1.13, 4.25, 1.95, 1.68, 7.44, repro,
2007-03-02,0.28, 0.91, -0.27, 1.94, 1.66, 7.34, repro,
2007-03-03,-0.61, 1.57, -2.13, 1.90, 1.64, 7.22, repro,
2007-03-04,-0.20, 1.29, 1.51, 1.90, 1.64, 7.25, repro,
2007-03-05,-0.82, 0.24, 3.51, 1.95, 1.69, 7.51, repro,
2007-03-06,-1.72, 0.56, 3.80, 1.91, 1.64, 7.26, repro,
2007-03-07,-0.42, 0.86, 6.66, 1.90, 1.63, 7.22, repro,
2007-03-08,-1.61, 1.49, 4.31, 1.90, 1.64, 7.25, repro,
2007-03-09,-0.78, -0.36, 1.15, 1.96, 1.70, 7.44, repro,
2007-03-10,-1.00, 1.18, 1.72, 1.95, 1.68, 7.50, repro,
2007-03-11,-1.76, -0.50, 3.71, 1.92, 1.65, 7.32, repro,
2007-03-12,-0.68, 0.49, 7.34, 1.93, 1.69, 7.50, repro,
2007-03-13,-1.08, 0.61, 8.85, 1.88, 1.60, 7.14, repro,
2007-03-14,-0.69, 0.95, 8.43, 1.90, 1.65, 7.31, repro,
2007-03-15,-0.72, 1.59, 3.60, 1.94, 1.68, 7.43, repro,
2007-03-16,-0.58, 0.06, 6.78, 1.92, 1.62, 7.19, repro,
2007-03-17,-0.79, 0.96, 8.66, 1.90, 1.59, 7.10, repro,
2007-03-18,-2.02, 1.20, 15.76, 1.97, 1.65, 7.40, repro,
2007-03-19,-1.82, 1.55, 8.74, 1.91, 1.63, 7.23, repro,
2007-03-20,-1.41, 0.74, 9.86, 1.95, 1.63, 7.35, repro,
2007-03-21,0.01, -0.61, 12.21, 1.98, 1.65, 7.44, repro,
2007-03-22,-1.15, -0.23, 13.45, 1.92, 1.63, 7.28, repro,
2007-03-23,-0.87, -0.36, 12.29, 1.92, 1.62, 7.25, repro,
2007-03-24,-1.18, -0.31, 12.93, 1.91, 1.63, 7.28, repro,
2007-03-25,-1.90, -1.29, 12.51, 1.90, 1.60, 7.20, repro,
2007-03-26,-2.00, -0.08, 10.83, 1.89, 1.59, 7.07, repro,
2007-03-27,-1.86, -1.51, 11.44, 1.95, 1.61, 7.27, repro,
2007-03-28,-1.04, -0.15, 9.18, 1.96, 1.64, 7.37, repro,
2007-03-29,-1.34, 0.73, 8.44, 1.92, 1.63, 7.29, repro,
2007-03-30,-1.72, 0.06, 3.68, 1.88, 1.59, 7.07, repro,
2007-03-31,-0.93, 1.37, 6.66, 1.91, 1.64, 7.30, repro,
2007-04-01,-0.04, -0.26, 8.61, 1.92, 1.64, 7.34, repro,
2007-04-02,-1.60, 1.17, 7.92, 1.91, 1.60, 7.16, repro,
2007-04-03,-1.75, 1.03, 7.81, 1.94, 1.66, 7.42, repro,
2007-04-04,-1.76, 0.37, 6.49, 1.96, 1.68, 7.41, repro,
2007-04-05,-1.95, 0.44, 8.03, 1.99, 1.75, 7.62, repro,
2007-04-06,-1.66, 0.93, 4.76, 1.98, 1.72, 7.56, repro,
2007-04-07,0.44, -0.50, 4.85, 1.94, 1.63, 7.26, repro,
2007-04-08,-1.62, 0.44, 10.18, 1.91, 1.59, 7.13, repro,
2007-04-09,-1.76, 1.02, 10.19, 1.89, 1.57, 7.02, repro,
2007-04-10,-0.05, 0.65, 7.32, 1.93, 1.63, 7.24, repro,
2007-04-11,-1.30, 0.70, 11.32, 1.89, 1.61, 7.21, repro,
2007-04-12,-0.52, -0.82, 8.51, 1.90, 1.60, 7.18, repro,
2007-04-13,-1.22, 0.92, 7.27, 1.92, 1.60, 7.19, repro,
2007-04-14,-1.39, -0.03, 12.23, 1.91, 1.60, 7.15, repro,
2007-04-15,-1.88, 0.45, 8.23, 1.89, 1.58, 7.06, repro,
2007-04-16,-0.47, 0.02, 8.18, 1.89, 1.60, 7.15, repro,
2007-04-17,-0.82, 0.27, 12.50, 1.90, 1.59, 7.14, repro,
2007-04-18,-1.16, -0.67, 3.54, 1.90, 1.59, 7.16, repro,
2007-04-19,-1.39, -0.17, 6.90, 1.91, 1.59, 7.15, repro,
2007-04-20,-1.40, -0.38, 8.24, 1.92, 1.59, 7.14, repro,
2007-04-21,-1.58, 0.20, 7.50, 1.90, 1.59, 7.13, repro,
2007-04-22,-0.92, 0.20, 2.78, 1.89, 1.59, 7.13, repro,
2007-04-23,0.37, -1.67, 2.74, 1.94, 1.61, 7.24, repro,
2007-04-24,-0.76, 0.04, -0.14, 1.94, 1.63, 7.32, repro,
2007-04-25,-1.06, 0.16, 7.51, 1.95, 1.62, 7.27, repro,
2007-04-26,-2.10, -0.97, 13.77, 1.91, 1.60, 7.15, repro,
2007-04-27,-2.07, -0.64, 9.64, 1.89, 1.58, 7.12, repro,
2007-04-28,-0.71, 0.11, 5.48, 1.91, 1.59, 7.16, repro,
2007-04-29,-1.86, -0.48, 5.44, 1.92, 1.59, 7.19, repro,
2007-04-30,-1.13, -0.11, 7.96, 1.92, 1.58, 7.14, repro,
2007-05-01,-1.85, 0.65, 6.60, 1.92, 1.59, 7.16, repro,
2007-05-02,-2.93, 1.15, 6.99, 1.98, 1.59, 7.43, repro,
2007-05-03,-0.50, -0.17, 1.30, 2.02, 1.64, 7.55, repro,
2007-05-04,-1.94, -0.54, 6.72, 1.92, 1.58, 7.20, repro,
2007-05-05,-1.95, -0.22, 1.48, 1.97, 1.62, 7.31, repro,
2007-05-06,0.81, 0.72, 4.32, 1.98, 1.61, 7.29, repro,
2007-05-07,-0.56, 0.20, 9.54, 1.92, 1.58, 7.19, repro,
2007-05-08,-1.00, 0.81, 6.26, 1.91, 1.59, 7.20, repro,
2007-05-09,-1.09, 0.00, 10.00, 1.92, 1.58, 7.16, repro,
2007-05-10,-0.32, 0.22, 5.77, 2.08, 1.68, 7.76, repro,
2007-05-11,-0.97, 0.63, 6.66, 2.07, 1.69, 7.74, repro,
2007-05-12,-1.16, 0.31, 6.76, 1.93, 1.60, 7.20, repro,
2007-05-13,-0.91, -0.47, 8.14, 1.96, 1.61, 7.25, repro,
2007-05-14,-1.08, 0.67, 6.94, 1.94, 1.60, 7.21, repro,
2007-05-15,-0.67, 0.31, 6.94, 1.93, 1.58, 7.15, repro,
2007-05-16,-1.73, 0.35, 6.25, 1.94, 1.58, 7.16, repro,
2007-05-17,-1.77, -0.25, 8.62, 1.97, 1.63, 7.36, repro,
2007-05-18,-1.70, -0.84, 8.83, 2.01, 1.69, 7.54, repro,
2007-05-19,-1.01, 0.26, 7.17, 1.96, 1.62, 7.27, repro,
2007-05-20,-2.52, 0.71, 12.14, 1.99, 1.65, 7.36, repro,
2007-05-21,-1.13, -0.01, 6.96, 1.96, 1.61, 7.22, repro,
2007-05-22,-0.25, 0.08, 13.10, 2.02, 1.69, 7.53, repro,
2007-05-23,-0.92, -0.06, 10.94, 2.09, 1.79, 7.85, repro,
2007-05-24,-2.05, 0.56, 13.37, 2.12, 1.78, 7.94, repro,
2007-05-25,-1.68, 0.65, 7.56, 1.97, 1.63, 7.31, repro,
2007-05-26,-1.24, 0.63, 7.49, 1.96, 1.63, 7.26, repro,
2007-05-27,-0.67, 0.16, 9.46, 2.02, 1.68, 7.51, repro,
2007-05-28,-1.99, 0.58, 6.91, 1.97, 1.62, 7.28, repro,
2007-05-29,-1.80, 0.12, 8.06, 1.93, 1.59, 7.14, repro,
2007-05-30,-1.67, 0.27, 6.73, 1.98, 1.59, 7.25, repro,
2007-05-31,-0.82, 0.41, 5.87, 2.06, 1.71, 7.57, repro,
2007-06-01,-2.48, 0.01, 10.47, 1.94, 1.60, 7.19, repro,
2007-06-02,-1.25, 0.13, 9.19, 1.94, 1.59, 7.19, repro,
2007-06-03,-1.76, 0.51, 11.14, 1.93, 1.58, 7.13, repro,
2007-06-04,-2.06, 0.82, 13.26, 1.92, 1.58, 7.14, repro,
2007-06-05,-0.85, -0.07, 12.17, 1.96, 1.61, 7.32, repro,
2007-06-06,-0.91, -0.46, 12.82, 1.94, 1.60, 7.23, repro,
2007-06-07,-1.20, -0.03, 13.50, 1.93, 1.59, 7.16, repro,
2007-06-08,-1.08, 0.41, 10.02, 1.93, 1.59, 7.14, repro,
2007-06-09,-1.54, 0.75, 6.36, 1.94, 1.62, 7.23, repro,
2007-06-10,-1.54, 0.01, 6.48, 1.93, 1.59, 7.20, repro,
2007-06-11,-0.05, 0.34, 6.78, 1.98, 1.70, 7.47, repro,
2007-06-12,-1.69, 0.34, 10.41, 1.97, 1.69, 7.34, repro,
2007-06-13,-0.86, 1.28, 4.37, 1.98, 1.63, 7.26, repro,
2007-06-14,-1.38, 1.69, 3.96, 1.98, 1.63, 7.25, repro,
2007-06-15,-2.09, 1.33, 11.00, 1.96, 1.61, 7.26, repro,
2007-06-16,-0.53, 0.85, 3.76, 1.91, 1.59, 7.19, repro,
2007-06-17,-1.17, 1.21, 5.71, 1.92, 1.60, 7.18, repro,
2007-06-18,-0.17, 1.98, 12.32, 1.93, 1.58, 7.14, repro,
2007-06-19,-2.48, 1.95, 2.41, 1.92, 1.59, 7.18, repro,
2007-06-20,-1.18, 1.28, 2.28, 1.91, 1.59, 7.13, repro,
2007-06-21,-1.44, 1.16, 5.58, 1.92, 1.59, 7.19, repro,
2007-06-22,-1.38, 0.60, 6.91, 1.92, 1.59, 7.18, repro,
2007-06-23,-1.68, 0.52, 7.49, 1.92, 1.59, 7.18, repro,
2007-06-24,-2.15, -0.06, 6.20, 1.97, 1.63, 7.41, repro,
2007-06-25,-1.25, 1.33, 4.14, 1.93, 1.59, 7.24, repro,
2007-06-26,-1.63, 0.50, 3.83, 1.91, 1.58, 7.13, repro,
2007-06-27,-1.24, 0.95, 2.41, 1.92, 1.59, 7.21, repro,
2007-06-28,-1.69, 0.83, 6.31, 1.92, 1.59, 7.21, repro,
2007-06-29,-1.22, 1.03, 4.66, 1.92, 1.58, 7.18, repro,
2007-06-30,-1.90, 1.37, 8.13, 1.95, 1.59, 7.27, repro,
2007-07-01,-0.79, 0.75, 7.69, 1.92, 1.59, 7.19, repro,
2007-07-02,-1.18, 1.40, 6.12, 1.91, 1.60, 7.20, repro,
2007-07-03,-0.80, 1.86, 5.62, 1.92, 1.59, 7.23, repro,
2007-07-04,-2.05, 0.92, 6.14, 1.92, 1.61, 7.25, repro,
2007-07-05,-0.89, 0.32, 7.94, 1.93, 1.61, 7.30, repro,
2007-07-06,0.10, 1.60, 7.59, 1.94, 1.61, 7.28, repro,
2007-07-07,-1.49, 0.57, 5.62, 1.95, 1.67, 7.41, repro,
2007-07-08,-2.71, 0.78, 7.62, 1.92, 1.59, 7.18, repro,
2007-07-09,-1.28, 0.83, 8.20, 1.93, 1.59, 7.17, repro,
2007-07-10,-1.94, 0.66, 2.77, 1.93, 1.58, 7.17, repro,
2007-07-11,-1.25, 0.59, -2.34, 1.92, 1.59, 7.16, repro,
2007-07-12,-1.63, 1.37, 6.39, 1.95, 1.66, 7.34, repro,
2007-07-13,-0.64, 0.86, 4.52, 1.94, 1.65, 7.34, repro,
2007-07-14,-1.37, 2.08, 5.14, 1.95, 1.64, 7.29, repro,
2007-07-15,-0.82, 1.13, 4.86, 1.97, 1.66, 7.49, repro,
2007-07-16,-0.34, 0.84, 7.86, 1.97, 1.66, 7.47, repro,
2007-07-17,-2.93, 0.61, 9.59, 1.96, 1.67, 7.42, repro,
2007-07-18,-0.31, 0.59, 2.55, 1.92, 1.60, 7.23, repro,
2007-07-19,-0.80, 1.29, 5.76, 1.91, 1.59, 7.14, repro,
2007-07-20,-1.75, 1.55, 12.27, 1.96, 1.66, 7.42, repro,
2007-07-21,-0.18, 1.25, 6.11, 1.98, 1.65, 7.44, repro,
2007-07-22,-1.15, 1.14, -0.03, 2.02, 1.68, 7.61, repro,
2007-07-23,-1.50, 1.81, 13.21, 2.04, 1.74, 7.76, repro,
2007-07-24,-0.68, 1.75, 19.01, 1.97, 1.65, 7.36, repro,
2007-07-25,-0.11, 1.52, 2.62, 1.96, 1.66, 7.42, repro,
2007-07-26,-1.19, 0.80, 4.31, 1.94, 1.60, 7.25, repro,
2007-07-27,-0.58, 1.56, 6.39, 1.98, 1.66, 7.45, repro,
2007-07-28,-1.04, 0.32, 10.83, 2.00, 1.72, 7.59, repro,
2007-07-29,-0.72, -0.03, 11.61, 1.95, 1.66, 7.38, repro,
2007-07-30,-1.42, 1.87, 8.38, 1.95, 1.67, 7.42, repro,
2007-07-31,-1.43, 1.83, 3.69, 1.95, 1.66, 7.37, repro,
2007-08-01,0.83, 1.35, 9.72, 1.94, 1.60, 7.18, repro,
2007-08-02,-1.03, 1.09, 11.05, 1.94, 1.61, 7.22, repro,
2007-08-03,0.12, 0.82, 7.86, 1.92, 1.60, 7.18, repro,
2007-08-04,0.02, 0.84, 9.64, 1.91, 1.60, 7.17, repro,
2007-08-05,-1.41, 1.02, 8.97, 1.96, 1.61, 7.29, repro,
2007-08-06,-0.69, 0.56, 14.58, 1.94, 1.64, 7.34, repro,
2007-08-07,-1.10, 0.93, 8.90, 1.95, 1.64, 7.36, repro,
2007-08-08,-0.60, -0.23, 8.81, 1.93, 1.60, 7.24, repro,
2007-08-09,0.16, 0.08, 9.63, 1.91, 1.60, 7.19, repro,
2007-08-10,-0.36, 0.96, 15.74, 1.90, 1.59, 7.12, repro,
2007-08-11,-0.31, 1.50, 7.78, 1.91, 1.58, 7.10, repro,
2007-08-12,0.30, 1.15, 12.68, 1.91, 1.59, 7.15, repro,
2007-08-13,-0.55, 0.62, 9.97, 1.93, 1.59, 7.21, repro,
2007-08-14,-0.67, 0.96, 11.53, 2.05, 1.73, 7.65, repro,
2007-08-15,-0.82, 0.56, 12.15, 2.04, 1.73, 7.62, repro,
2007-08-16,0.38, 1.03, 13.83, 1.99, 1.65, 7.49, repro,
2007-08-17,1.15, 0.17, 8.48, 2.02, 1.65, 7.51, repro,
2007-08-18,-0.04, 0.77, 6.85, 2.02, 1.67, 7.64, repro,
2007-08-19,-0.19, 1.23, 12.41, 2.09, 1.71, 7.90, repro,
2007-08-20,0.82, 0.31, 11.65, 2.01, 1.66, 7.54, repro,
2007-08-21,-0.24, 1.20, 10.31, 2.04, 1.67, 7.64, repro,
2007-08-22,-0.15, 1.56, 12.78, 2.01, 1.63, 7.45, repro,
2007-08-23,0.85, 0.60, 17.31, 1.97, 1.59, 7.25, repro,
2007-08-24,-0.41, -0.25, 13.44, 2.08, 1.70, 7.74, repro,
2007-08-25,0.00, 1.12, 8.19, 2.03, 1.69, 7.62, repro,
2007-08-26,-0.35, 2.17, 19.37, 2.04, 1.74, 7.77, repro,
2007-08-27,-0.11, 1.04, 8.68, 2.04, 1.72, 7.74, repro,
2007-08-28,-0.77, 0.31, 6.36, 2.02, 1.67, 7.56, repro,
2007-08-29,0.11, -1.37, 10.34, 2.06, 1.76, 7.75, repro,
2007-08-30,2.46, -1.29, 16.69, 2.09, 1.74, 7.88, repro,
2007-08-31,-0.19, -0.88, 12.33, 2.02, 1.69, 7.62, repro,
2007-09-01,0.38, 0.83, 8.81, 2.01, 1.70, 7.63, repro,
2007-09-02,-1.11, 1.88, 13.80, 2.01, 1.68, 7.58, repro,
2007-09-03,-0.94, -0.27, 11.02, 2.01, 1.68, 7.59, repro,
2007-09-04,-1.11, -0.54, 11.32, 2.02, 1.68, 7.58, repro,
2007-09-05,-0.16, -0.32, 12.65, 2.00, 1.68, 7.48, repro,
2007-09-06,-0.29, -0.45, 12.50, 2.00, 1.67, 7.51, repro,
2007-09-07,-1.44, 0.37, 12.76, 2.01, 1.68, 7.56, repro,
2007-09-08,0.01, 0.19, 6.97, 2.14, 1.82, 8.07, repro,
2007-09-09,0.00, 0.27, 10.30, 2.09, 1.76, 7.94, repro,
2007-09-10,-1.91, -0.45, 5.42, 2.03, 1.68, 7.55, repro,
2007-09-11,-0.30, -0.54, 13.15, 2.04, 1.69, 7.62, repro,
2007-09-12,-0.63, -0.15, 7.81, 2.06, 1.71, 7.73, repro,
2007-09-13,-0.53, -0.04, 10.67, 2.15, 1.73, 8.01, repro,
2007-09-14,-1.02, -0.65, 8.21, 2.14, 1.72, 7.96, repro,
2007-09-15,-1.28, -0.08, 10.99, 2.21, 1.70, 8.14, repro,
2007-09-16,-1.30, -1.11, 7.64, 2.10, 1.68, 7.73, repro,
2007-09-17,-2.38, -0.62, 13.21, 2.09, 1.76, 7.87, repro,
2007-09-18,-1.11, 0.26, 11.45, 2.02, 1.67, 7.56, repro,
2007-09-19,-2.02, -0.18, 7.16, 1.95, 1.61, 7.26, repro,
2007-09-20,-1.72, -0.64, 11.90, 1.98, 1.63, 7.42, repro,
2007-09-21,-1.40, -0.95, 10.44, 2.05, 1.67, 7.66, repro,
2007-09-22,0.32, -0.54, 14.94, 2.01, 1.65, 7.46, repro,
2007-09-23,-1.20, 0.11, 13.39, 2.04, 1.70, 7.63, repro,
2007-09-24,-0.74, 0.94, 9.61, 2.10, 1.71, 7.95, repro,
2007-09-25,-1.91, 0.08, 6.51, 2.01, 1.64, 7.52, repro,
2007-09-26,-1.07, -0.07, 15.65, 2.09, 1.67, 7.73, repro,
2007-09-27,-2.71, -0.94, 15.97, 2.00, 1.64, 7.48, repro,
2007-09-28,-2.26, -0.53, 14.89, 2.04, 1.76, 7.69, repro,
2007-09-29,-1.41, -0.15, 12.64, 2.02, 1.70, 7.61, repro,
2007-09-30,-0.56, -0.90, 13.48, 2.02, 1.72, 7.72, repro,
2007-10-01,-1.13, -0.54, 13.20, 2.02, 1.70, 7.64, repro,
2007-10-02,-0.84, -1.04, 17.07, 2.04, 1.75, 7.79, repro,
2007-10-03,-0.53, 0.28, 18.06, 2.05, 1.69, 7.70, repro,
2007-10-04,-1.54, 1.24, 14.55, 2.21, 1.75, 8.21, repro,
2007-10-05,-0.66, -0.95, 9.35, 2.03, 1.75, 7.83, repro,
2007-10-06,-1.22, 1.14, 9.09, 2.05, 1.71, 7.77, repro,
2007-10-07,-1.55, 0.19, 9.27, 2.03, 1.72, 7.70, repro,
2007-10-08,-1.31, -0.19, 12.39, 2.20, 1.80, 8.46, repro,
2007-10-09,-2.17, 0.19, 15.47, 2.10, 1.80, 8.03, repro,
2007-10-10,-2.43, 0.25, 11.19, 2.14, 1.73, 8.00, repro,
2007-10-11,-1.07, 0.47, 11.65, 1.98, 1.68, 7.55, repro,
2007-10-12,-2.24, -0.34, 18.70, 1.94, 1.64, 7.43, repro,
2007-10-13,-1.46, 0.65, 14.91, 1.94, 1.64, 7.38, repro,
2007-10-14,-1.56, -0.46, 13.44, 1.94, 1.66, 7.42, repro,
2007-10-15,-1.85, 0.67, 15.02, 2.00, 1.71, 7.63, repro,
2007-10-16,-2.83, -1.11, 18.50, 1.94, 1.63, 7.34, repro,
2007-10-17,-3.14, -0.99, 15.31, 1.95, 1.63, 7.44, repro,
2007-10-18,-1.77, 1.17, 16.10, 1.95, 1.64, 7.45, repro,
2007-10-19,-1.22, 0.08, 17.73, 1.93, 1.64, 7.36, repro,
2007-10-20,-0.42, 0.10, 12.90, 1.99, 1.69, 7.64, repro,
2007-10-21,-0.49, -0.56, 16.59, 1.94, 1.65, 7.41, repro,
2007-10-22,-1.22, 0.84, 11.08, 1.98, 1.66, 7.50, repro,
2007-10-23,-0.89, 1.48, 10.05, 1.99, 1.71, 7.68, repro,
2007-10-24,-1.91, 1.09, 9.74, 2.03, 1.74, 7.73, repro,
2007-10-25,-2.37, 0.39, 11.54, 1.98, 1.69, 7.57, repro,
2007-10-26,-1.96, 1.15, 7.21, 1.98, 1.70, 7.51, repro,
2007-10-27,-1.82, -0.36, 12.08, 1.96, 1.64, 7.40, repro,
2007-10-28,-0.26, 0.29, 3.74, 1.95, 1.64, 7.39, repro,
2007-10-29,-0.95, 0.27, 11.56, 2.05, 1.70, 7.66, repro,
2007-10-30,-2.61, -0.08, 13.95, 1.96, 1.65, 7.46, repro,
2007-10-31,-1.59, 0.33, 8.53, 1.95, 1.65, 7.41, repro,
2007-11-01,-1.11, 1.63, 7.00, 1.92, 1.60, 7.17, repro,
2007-11-02,-1.30, 0.47, 8.44, 1.92, 1.60, 7.15, repro,
2007-11-03,-1.81, 1.16, 6.36, 1.92, 1.60, 7.21, repro,
2007-11-04,-1.28, 0.34, 13.22, 1.93, 1.61, 7.27, repro,
2007-11-05,-1.71, 0.41, 8.87, 1.93, 1.62, 7.24, repro,
2007-11-06,-1.61, 0.46, 4.55, 2.06, 1.81, 7.90, repro,
2007-11-07,-1.18, 0.26, 6.87, 1.91, 1.59, 7.14, repro,
2007-11-08,-2.12, 0.42, 8.17, 1.95, 1.65, 7.32, repro,
2007-11-09,-0.90, -0.34, 3.95, 1.95, 1.65, 7.40, repro,
2007-11-10,-0.81, 0.03, 4.28, 1.93, 1.61, 7.28, repro,
2007-11-11,-1.53, 0.56, 8.38, 1.92, 1.60, 7.23, repro,
2007-11-12,-1.98, -1.42, 2.29, 1.93, 1.62, 7.29, repro,
2007-11-13,-0.08, 0.08, 10.02, 1.91, 1.60, 7.19, repro,
2007-11-14,-0.80, 1.58, 3.40, 1.94, 1.62, 7.32, repro,
2007-11-15,-0.92, -0.01, 6.85, 1.94, 1.64, 7.36, repro,
2007-11-16,-0.78, -0.12, 6.89, 1.95, 1.63, 7.37, repro,
2007-11-17,-0.61, -0.69, 4.77, 1.91, 1.59, 7.22, repro,
2007-11-18,0.21, -0.05, 3.02, 1.94, 1.62, 7.30, repro,
2007-11-19,-0.39, 0.40, 6.82, 1.91, 1.61, 7.19, repro,
2007-11-20,-0.80, -0.35, 2.10, 2.05, 1.74, 7.69, repro,
2007-11-21,-0.10, 0.31, 3.54, 2.02, 1.78, 7.66, repro,
2007-11-22,-0.65, -0.47, 1.14, 1.98, 1.67, 7.39, repro,
2007-11-23,0.10, -0.12, 9.27, 2.07, 1.81, 7.90, repro,
2007-11-24,-0.71, 0.04, 5.82, 1.93, 1.66, 7.30, repro,
2007-11-25,-0.20, -0.17, 6.71, 2.09, 1.79, 7.70, repro,
2007-11-26,-0.09, 0.01, 7.76, 2.06, 1.84, 7.90, repro,
2007-11-27,0.12, 0.51, 8.80, 2.06, 1.76, 7.78, repro,
2007-11-28,0.02, -0.25, 3.26, 2.07, 1.75, 7.72, repro,
2007-11-29,-0.24, -1.45, 2.78, 2.04, 1.76, 7.74, repro,
2007-11-30,-0.78, -1.40, 4.75, 2.11, 1.76, 7.71, repro,
2007-12-01,-0.72, -0.31, 7.81, 2.09, 1.82, 7.84, repro,
2007-12-02,-0.91, -0.77, 4.66, 2.15, 1.85, 8.17, repro,
2007-12-03,-0.49, 0.45, 3.85, 2.25, 1.97, 8.69, repro,
2007-12-04,0.40, -0.61, 5.55, 2.25, 2.05, 8.78, repro,
2007-12-05,0.34, 1.42, 8.73, 2.10, 1.88, 8.29, repro,
2007-12-06,0.44, 1.52, 8.82, 2.18, 1.98, 8.48, repro,
2007-12-07,-1.82, -1.04, 13.70, 2.18, 1.95, 8.38, repro,
2007-12-08,0.52, -0.76, 6.02, 2.11, 1.82, 7.88, repro,
2007-12-09,0.61, -0.81, 6.88, 2.39, 2.30, 9.37, repro,
2007-12-10,0.00, 0.23, 4.30, 2.10, 1.82, 7.92, repro,
2007-12-11,0.22, 0.51, 9.08, 2.08, 1.80, 7.80, repro,
2007-12-12,0.69, -0.89, 0.46, 2.13, 1.77, 7.96, repro,
2007-12-13,-0.04, 0.31, 7.15, 2.08, 1.78, 7.78, repro,
2007-12-14,0.24, 0.07, 6.41, 1.99, 1.64, 7.56, repro,
2007-12-15,0.42, 0.69, 9.89, 2.00, 1.67, 7.67, repro,
2007-12-16,0.08, -0.03, 6.02, 1.98, 1.64, 7.52, repro,
2007-12-17,-0.11, -0.60, 14.24, 2.02, 1.68, 7.48, repro,
2007-12-18,1.02, -0.18, 13.93, 1.99, 1.67, 7.47, repro,
2007-12-19,-0.68, -0.88, 11.13, 2.07, 1.70, 7.77, repro,
2007-12-20,0.17, -2.03, 12.43, 2.01, 1.70, 7.68, repro,
2007-12-21,0.58, -0.75, 4.97, 2.09, 1.77, 7.93, repro,
2007-12-22,0.94, -0.10, 4.50, 2.07, 1.76, 7.91, repro,
2007-12-23,-0.33, 0.42, 4.68, 2.02, 1.72, 7.59, repro,
2007-12-24,-0.07, -0.81, 4.18, 2.00, 1.67, 7.55, repro,
2007-12-25,0.78, 0.44, 9.46, 2.03, 1.73, 7.69, repro,
2007-12-26,-0.05, -0.31, 8.15, 2.00, 1.67, 7.56, repro,
2007-12-27,-0.52, -0.08, 13.88, 2.04, 1.72, 7.70, repro,
2007-12-28,-0.49, -0.12, 6.43, 2.03, 1.70, 7.62, repro,
2007-12-29,-0.20, 0.36, 5.99, 2.03, 1.69, 7.62, repro,
2007-12-30,-1.22, -0.27, 3.67, 2.05, 1.70, 7.67, repro,
2007-12-31,-0.34, 1.52, 2.05, 1.97, 1.62, 7.42, repro,
2008-01-01,-0.77, 0.31, 3.13, 1.97, 1.62, 7.39, repro,
2008-01-02,0.09, 0.61, 0.67, 1.97, 1.60, 7.31, repro,
2008-01-03,-1.09, -1.17, 5.42, 1.99, 1.63, 7.44, repro,
2008-01-04,0.42, 0.17, 4.05, 2.00, 1.64, 7.53, repro,
2008-01-05,-0.38, -0.56, 12.27, 1.95, 1.59, 7.31, repro,
2008-01-06,-1.03, -0.68, 10.67, 1.94, 1.59, 7.30, repro,
2008-01-07,-1.04, 0.15, 10.15, 1.94, 1.59, 7.31, repro,
2008-01-08,-1.43, 1.06, 0.86, 2.00, 1.60, 7.50, repro,
2008-01-09,-0.18, 0.32, 4.55, 2.01, 1.61, 7.57, repro,
2008-01-10,-0.65, -0.59, 6.53, 1.95, 1.59, 7.34, repro,
2008-01-11,0.10, -0.25, 5.53, 1.94, 1.60, 7.34, repro,
2008-01-12,-1.19, 0.31, 5.83, 1.93, 1.60, 7.33, repro,
2008-01-13,-0.83, 0.94, -3.49, 1.93, 1.59, 7.25, repro,
2008-01-14,-0.18, 0.32, -0.25, 1.94, 1.60, 7.29, repro,
2008-01-15,0.09, 0.07, 4.69, 1.93, 1.59, 7.23, repro,
2008-01-16,-0.51, 0.68, 2.97, 1.98, 1.62, 7.44, repro,
2008-01-17,-0.22, 0.44, 3.10, 1.97, 1.63, 7.44, repro,
2008-01-18,-0.31, 1.12, 4.85, 1.93, 1.64, 7.38, repro,
2008-01-19,-0.24, 0.98, -1.52, 1.92, 1.59, 7.21, repro,
2008-01-20,-0.67, 0.81, -1.55, 1.94, 1.59, 7.24, repro,
2008-01-21,-1.33, -1.04, 2.60, 1.94, 1.59, 7.25, repro,
2008-01-22,-1.24, -0.83, 4.52, 1.92, 1.61, 7.28, repro,
2008-01-23,-0.85, -0.06, -0.90, 1.93, 1.60, 7.28, repro,
2008-01-24,-0.42, 1.04, 1.27, 1.92, 1.59, 7.21, repro,
2008-01-25,0.42, 0.94, 4.54, 1.93, 1.59, 7.26, repro,
2008-01-26,-1.71, 0.03, 9.97, 1.93, 1.59, 7.22, repro,
2008-01-27,-0.74, 0.16, 13.83, 1.94, 1.61, 7.33, repro,
2008-01-28,-0.21, -0.43, 8.11, 1.96, 1.62, 7.40, repro,
2008-01-29,-1.54, 0.38, 5.74, 1.99, 1.72, 7.55, repro,
2008-01-30,-1.16, 0.60, 1.43, 2.01, 1.68, 7.60, repro,
2008-01-31,-0.44, 1.05, -2.41, 1.91, 1.59, 7.21, repro,
2008-02-01,-1.03, 0.01, -0.68, 1.92, 1.59, 7.24, repro,
2008-02-02,-1.35, 0.61, -2.00, 1.92, 1.61, 7.27, repro,
2008-02-03,-1.68, 2.04, 3.50, 1.91, 1.60, 7.23, repro,
2008-02-04,0.70, 1.90, -7.22, 1.92, 1.60, 7.27, repro,
2008-02-05,-0.18, 0.78, 1.79, 1.94, 1.66, 7.40, repro,
2008-02-06,-0.06, 0.22, 0.07, 1.96, 1.66, 7.42, repro,
2008-02-07,-1.02, 0.68, -2.31, 1.96, 1.63, 7.48, repro,
2008-02-08,-1.89, 1.31, 0.15, 1.93, 1.60, 7.30, repro,
2008-02-09,-1.51, 1.32, 3.16, 1.92, 1.59, 7.25, repro,
2008-02-10,-0.87, 0.94, 5.01, 1.92, 1.61, 7.28, repro,
2008-02-11,-1.50, 0.73, 5.76, 1.93, 1.59, 7.24, repro,
2008-02-12,-1.12, 0.59, 4.88, 1.92, 1.59, 7.24, repro,
2008-02-13,-0.58, -0.51, 5.48, 1.93, 1.61, 7.31, repro,
2008-02-14,-1.42, 0.81, 4.68, 1.91, 1.60, 7.24, repro,
2008-02-15,-0.36, 0.10, 3.97, 1.94, 1.64, 7.34, repro,
2008-02-16,-1.38, 0.64, 4.11, 1.92, 1.59, 7.22, repro,
2008-02-17,-1.76, 0.98, 5.62, 1.91, 1.58, 7.17, repro,
2008-02-18,-2.04, 0.53, 2.92, 1.92, 1.59, 7.20, repro,
2008-02-19,-2.25, 0.71, 3.61, 1.91, 1.61, 7.25, repro,
2008-02-20,-1.22, 0.02, 9.05, 1.93, 1.61, 7.34, repro,
2008-02-21,-1.51, 0.16, 0.97, 1.91, 1.61, 7.27, repro,
2008-02-22,-2.66, -0.51, 8.29, 1.92, 1.60, 7.26, repro,
2008-02-23,-0.70, 1.14, 6.55, 1.98, 1.65, 7.37, repro,
2008-02-24,-1.60, 1.32, 8.53, 1.92, 1.60, 7.25, repro,
2008-02-25,-0.94, 0.97, 1.40, 1.92, 1.61, 7.28, repro,
2008-02-26,-1.37, 0.04, -3.73, 1.93, 1.60, 7.30, repro,
2008-02-27,-1.56, 0.46, -2.08, 1.96, 1.64, 7.43, repro,
2008-02-28,-0.69, -0.05, 0.05, 1.98, 1.68, 7.62, repro,
2008-02-29,-1.13, 0.96, -0.41, 1.96, 1.63, 7.41, repro,
2008-03-01,-0.33, 0.15, 1.44, 1.93, 1.61, 7.32, repro,
2008-03-02,-2.86, 0.64, 1.25, 1.97, 1.69, 7.67, repro,
2008-03-03,-0.83, -0.11, 5.44, 1.93, 1.60, 7.34, repro,
2008-03-04,-1.59, 0.71, 2.91, 1.92, 1.60, 7.26, repro,
2008-03-05,-1.68, 0.57, 0.11, 1.99, 1.70, 7.63, repro,
2008-03-06,-0.04, 0.50, 0.16, 1.92, 1.60, 7.27, repro,
2008-03-07,-1.23, 0.20, 0.97, 1.95, 1.66, 7.44, repro,
2008-03-08,-1.71, 0.60, 3.21, 1.95, 1.63, 7.47, repro,
2008-03-09,-1.35, -0.32, 7.45, 1.95, 1.64, 7.50, repro,
2008-03-10,-0.81, 0.67, 1.49, 1.92, 1.59, 7.27, repro,
2008-03-11,-0.82, 1.37, 1.67, 1.92, 1.58, 7.20, repro,
2008-03-12,-1.25, 0.29, 5.06, 1.95, 1.64, 7.50, repro,
2008-03-13,-0.89, -0.26, 13.22, 1.96, 1.63, 7.52, repro,
2008-03-14,-0.46, -0.43, 7.79, 1.95, 1.63, 7.45, repro,
2008-03-15,-0.03, -2.28, 0.10, 1.96, 1.63, 7.50, repro,
2008-03-16,-3.43, 0.65, 6.06, 1.98, 1.66, 7.60, repro,
2008-03-17,-1.19, -0.25, 4.61, 2.13, 1.78, 8.26, repro,
2008-03-18,-0.25, 0.03, 4.24, 1.97, 1.68, 7.58, repro,
2008-03-19,-0.58, -0.04, 2.36, 1.95, 1.63, 7.42, repro,
2008-03-20,-0.79, 0.51, -0.93, 1.95, 1.62, 7.39, repro,
2008-03-21,-0.82, 0.19, -4.25, 1.96, 1.62, 7.39, repro,
2008-03-22,-1.88, -0.31, -0.02, 1.97, 1.62, 7.41, repro,
2008-03-23,-1.19, -0.43, -1.04, 1.98, 1.68, 7.65, repro,
2008-03-24,0.19, -0.71, 3.00, 1.95, 1.64, 7.42, repro,